TimeCST,TemperatureF,Dew PointF,Humidity,Sea Level PressureIn,VisibilityMPH,Wind Direction,Wind SpeedMPH,Gust SpeedMPH,PrecipitationIn,Events,Conditions,WindDirDegrees,DateUTC
12:52 AM,32.0,32.0,100,29.59,0.8,NNE,15.0,25.3,0.05,Snow,Light Snow,20,2013-02-27 06:52:00
1:06 AM,32.0,32.0,100,29.57,1.0,NNE,19.6,25.3,0.01,Snow,Light Snow,20,2013-02-27 07:06:00
1:52 AM,32.0,32.0,100,29.58,1.0,NNE,15.0,24.2,0.04,Snow,Light Snow,20,2013-02-27 07:52:00
2:26 AM,32.0,32.0,100,29.55,0.8,NNE,16.1,25.3,0.04,Snow,Light Snow,20,2013-02-27 08:26:00
2:52 AM,32.0,32.0,100,29.57,0.8,NNE,17.3,24.2,0.06,Snow,Light Snow,20,2013-02-27 08:52:00
3:52 AM,32.0,32.0,100,29.57,1.0,NNE,19.6,26.5,0.05,Snow,Light Snow,20,2013-02-27 09:52:00
4:52 AM,32.0,32.0,100,29.57,1.0,North,16.1,26.5,0.02,Snow,Light Snow,10,2013-02-27 10:52:00
5:52 AM,33.1,32.0,96,29.56,1.0,North,15.0,27.6,0.01,Snow,Light Snow,10,2013-02-27 11:52:00
6:41 AM,33.8,32.0,93,29.54,1.8,North,18.4,24.2,0.01,Snow,Light Snow,10,2013-02-27 12:41:00
6:52 AM,33.1,32.0,96,29.57,1.8,North,12.7,26.5,0.01,Snow,Light Snow,10,2013-02-27 12:52:00
7:29 AM,32.0,30.2,93,29.56,1.0,NNW,11.5,-,0.01,Snow,Light Snow,330,2013-02-27 13:29:00
7:52 AM,32.0,30.9,96,29.59,0.8,North,11.5,-,0.03,Snow,Light Snow,350,2013-02-27 13:52:00
8:09 AM,32.0,30.2,93,29.57,1.0,North,9.2,-,0.00,Snow,Light Snow,350,2013-02-27 14:09:00
8:52 AM,32.0,30.9,96,29.59,0.5,NNW,10.4,-,0.04,Snow,Light Snow,340,2013-02-27 14:52:00
9:38 AM,32.0,30.2,93,29.57,1.0,NNW,6.9,-,0.04,Snow,Light Snow,340,2013-02-27 15:38:00
9:52 AM,32.0,30.9,96,29.59,1.0,North,8.1,-,0.05,Snow,Light Snow,350,2013-02-27 15:52:00
10:52 AM,33.1,32.0,96,29.59,1.0,North,13.8,-,0.02,Snow,Light Snow,10,2013-02-27 16:52:00
11:24 AM,33.8,32.0,93,29.57,0.8,North,12.7,20.7,0.02,Snow,Light Snow,10,2013-02-27 17:24:00
11:48 AM,33.8,32.0,93,29.57,1.0,North,12.7,-,0.04,Snow,Light Snow,10,2013-02-27 17:48:00
11:52 AM,33.1,32.0,96,29.59,1.0,North,13.8,-,0.04,Snow,Light Snow,10,2013-02-27 17:52:00
12:52 PM,34.0,33.1,96,29.59,1.2,North,13.8,19.6,0.02,Snow,Snow,360,2013-02-27 18:52:00
1:04 PM,33.8,32.0,93,29.57,1.2,North,12.7,20.7,0.01,Snow,Light Snow,10,2013-02-27 19:04:00
1:27 PM,33.8,32.0,93,29.57,0.8,North,13.8,-,0.02,Snow,Light Snow,10,2013-02-27 19:27:00
1:47 PM,33.8,32.0,93,29.57,0.2,North,13.8,-,0.03,Fog-Snow,Snow,10,2013-02-27 19:47:00
1:52 PM,33.1,32.0,96,29.60,0.5,North,10.4,19.6,0.04,Fog-Snow,Snow,360,2013-02-27 19:52:00
2:43 PM,33.8,32.0,93,29.59,1.0,North,16.1,21.9,0.04,Snow,Light Snow,360,2013-02-27 20:43:00
2:52 PM,33.1,32.0,96,29.61,0.8,North,13.8,21.9,0.04,Snow,Light Snow,10,2013-02-27 20:52:00
3:11 PM,33.8,32.0,93,29.59,1.0,North,13.8,24.2,0.01,Snow,Light Snow,360,2013-02-27 21:11:00
3:25 PM,33.8,32.0,93,29.60,1.0,North,15.0,23.0,0.01,Snow,Light Snow,360,2013-02-27 21:25:00
3:52 PM,33.8,32.0,93,29.61,1.8,North,16.1,26.5,N/A,Snow,Light Snow,360,2013-02-27 21:52:00
4:02 PM,33.8,32.0,93,29.61,2.0,North,20.7,26.5,0.00,Snow,Light Snow,360,2013-02-27 22:02:00
4:52 PM,33.1,30.9,92,29.65,2.0,North,16.1,25.3,0.00,Snow,Light Snow,10,2013-02-27 22:52:00
5:52 PM,33.1,30.9,92,29.67,2.0,North,15.0,23.0,0.00,,Light Drizzle,360,2013-02-27 23:52:00
6:22 PM,33.8,30.2,87,29.66,0.5,North,19.6,25.3,0.00,Fog-Snow,Light Snow,10,2013-02-28 00:22:00
6:52 PM,32.0,30.9,96,29.69,1.0,North,12.7,19.6,0.01,Snow,Light Snow,360,2013-02-28 00:52:00
7:35 PM,32.0,30.2,93,29.67,1.5,North,11.5,-,0.02,Snow,Light Snow,350,2013-02-28 01:35:00
7:52 PM,32.0,30.2,93,29.68,1.5,North,13.8,-,N/A,Snow,Light Snow,350,2013-02-28 01:52:00
8:02 PM,32.0,30.2,93,29.68,1.5,NNW,10.4,19.6,0.00,Snow,Light Snow,340,2013-02-28 02:02:00
8:33 PM,32.0,30.2,93,29.69,2.0,NNW,12.7,-,0.00,Snow,Light Snow,340,2013-02-28 02:33:00
8:42 PM,32.0,30.2,93,29.69,3.0,NNW,11.5,-,0.01,Snow,Light Snow,340,2013-02-28 02:42:00
8:52 PM,32.0,30.0,92,29.72,3.0,NNW,12.7,18.4,0.01,Snow,Light Snow,340,2013-02-28 02:52:00
9:02 PM,32.0,30.2,93,29.69,1.8,NNW,12.7,-,0.00,Snow,Light Snow,340,2013-02-28 03:02:00
9:26 PM,32.0,30.2,93,29.69,1.5,NNW,10.4,-,0.00,Snow,Light Snow,340,2013-02-28 03:26:00
9:47 PM,32.0,30.2,93,29.70,2.0,NNW,12.7,-,0.00,Snow,Light Snow,330,2013-02-28 03:47:00
9:52 PM,33.1,30.9,92,29.73,2.5,North,12.7,21.9,0.00,Snow,Light Snow,350,2013-02-28 03:52:00
10:09 PM,33.8,30.2,87,29.70,7.0,North,12.7,-,0.00,Snow,Light Snow,350,2013-02-28 04:09:00
10:19 PM,32.0,30.2,93,29.70,2.0,NNW,11.5,-,0.00,Snow,Light Snow,340,2013-02-28 04:19:00
10:52 PM,33.1,30.9,92,29.73,2.0,NNW,12.7,20.7,0.00,Snow,Light Snow,340,2013-02-28 04:52:00
11:52 PM,33.1,30.9,92,29.74,2.0,NNW,11.5,19.6,0.00,Snow,Light Snow,340,2013-02-28 05:52:00